This demonstration page uses our WeatherBlox Daily Observations layout. Learn more.

Left ArrowRight Arrow

39.01783, -85.05884

Hourly Observations for October 28, 2021

Temp ( °F °C ) Dew Point ( °F °C ) Humidity (%) Winds ( mph kmh ) Pressure ( in mb ) Visibility ( mi km ) Precip ( " mm )
12:52 am 00:52 Cloudy 49 9.4 43 6.1 80 80 E 12 19 29.81 1010 10 16 N/A
1:52 am 01:52 Cloudy 49 9.4 42 5.6 77 77 E 15 24 29.80 1009 10 16 N/A
2:52 am 02:52 Cloudy 48 8.9 42 5.6 80 80 E 9 15 29.78 1009 10 16 N/A
3:52 am 03:52 Mostly Cloudy 47 8.3 42 5.6 83 83 E 10 17 29.75 1007 10 16 N/A
4:24 am 04:24 Mostly Cloudy 47 8.3 43 6.1 86 86 E 12 19 29.75 1007 10 16 N/A
4:39 am 04:39 Mostly Cloudy 47 8.3 43 6.1 86 86 ESE 8 13 29.76 1008 10 16 N/A
4:52 am 04:52 Partly Cloudy 47 8.3 43 6.1 86 86 E 8 13 29.73 1007 10 16 N/A
5:23 am 05:23 Mostly Cloudy 47 8.3 43 6.1 86 86 E 10 17 29.75 1007 10 16 N/A
5:52 am 05:52 Cloudy 47 8.3 43 6.1 86 86 E 10 17 29.70 1006 10 16 N/A
6:52 am 06:52 Cloudy 47 8.3 43 6.1 86 86 E 14 22 29.69 1005 10 16 N/A
7:52 am 07:52 Cloudy 48 8.9 43 6.1 83 83 E 12 19 29.66 1004 10 16 N/A
8:32 am 08:32 Cloudy 48 8.9 44 6.7 86 86 E 9 15 29.66 1005 10 16 N/A
8:52 am 08:52 Cloudy 48 8.9 44 6.7 86 86 E 13 20 29.64 1004 10 16 N/A
9:52 am 09:52 Mostly Cloudy 51 10.6 45 7.2 80 80 E 15 24 29.62 1003 10 16 N/A
10:52 am 10:52 Cloudy 52 11.1 45 7.2 77 77 E 9 15 29.58 1002 10 16 N/A
11:52 am 11:52 Cloudy with Light Rain 52 11.1 46 7.8 80 80 E 14 22 29.55 1001 10 16 0.00 0.00
12:52 pm 12:52 Cloudy 55 12.8 47 8.3 74 74 E 12 19 29.53 1000 10 16 0.00 0.00
1:52 pm 13:52 Cloudy with Heavy Rain 53 11.7 49 9.4 86 86 N N/A 29.56 1001 6 10 0.05 1.27
1:59 pm 13:59 Cloudy with Rain 53 11.7 49 9.4 86 86 W 5 7 29.57 1002 3 4 0.02 0.51
2:00 pm 14:00 Cloudy with Rain 53 11.7 49 9.4 86 86 W 5 7 29.57 1002 3 4 0.02 0.51
2:42 pm 14:42 Cloudy with Light Rain 53 11.7 50 10 89 89 ENE 6 9 29.56 1001 3 5 0.17 4.32
2:52 pm 14:52 Cloudy with Light Rain 53 11.7 50 10 89 89 NE 6 9 29.54 1001 5 8 0.18 4.57
3:37 pm 15:37 Cloudy with Rain 53 11.7 50 10 89 89 E 8 13 29.55 1001 4 6 0.06 1.52
3:52 pm 15:52 Cloudy with Rain 53 11.7 50 10 89 89 E 8 13 29.53 1000 5 8 0.08 2.03
4:10 pm 16:10 Cloudy with Light Rain 53 11.7 50 10 89 89 ENE 9 15 29.54 1000 9 14 0.01 0.25
4:52 pm 16:52 Cloudy with Light Rain 54 12.2 51 10.6 90 90 ESE 8 13 29.54 1000 5 8 0.02 0.51
5:52 pm 17:52 Cloudy 54 12.2 51 10.6 90 90 E 7 11 29.53 1000 9 14 0.06 1.52
6:52 pm 18:52 Cloudy 54 12.2 52 11.1 93 93 E 6 9 29.52 1000 10 16 N/A
7:23 pm 19:23 Cloudy with Light Rain 54 12.2 52 11.1 93 93 E 7 11 29.54 1000 5 8 0.00 0.00
7:52 pm 19:52 Cloudy with Light Rain 55 12.8 52 11.1 90 90 ESE 9 15 29.54 1000 7 11 0.01 0.25
8:11 pm 20:11 Cloudy with Light Rain 55 12.8 52 11.1 90 90 E 8 13 29.54 1000 7 11 0.01 0.25
8:52 pm 20:52 Cloudy with Light Rain 55 12.8 52 11.1 90 90 ESE 8 13 29.53 1000 6 10 0.03 0.76
9:03 pm 21:03 Cloudy with Light Rain 55 12.8 52 11.1 90 90 ESE 8 13 29.54 1000 7 11 0.00 0.00
9:52 pm 21:52 Cloudy 55 12.8 52 11.1 90 90 ESE 9 15 29.51 999 10 16 0.00 0.00
10:52 pm 22:52 Cloudy 55 12.8 52 11.1 90 90 ESE 7 11 29.50 999 10 16 N/A
11:52 pm 23:52 Mostly Cloudy 55 12.8 52 11.1 90 90 ESE 6 9 29.50 999 9 14 N/A

Powered by AerisWeather